Date String (YYYY-MM-DD hh:mm:ss) UTC,Instrument flags,Ambient pressure (hPa),Sample flow (lpm),Bypass flow (lpm),Sample temperature (°C),Ambient temperature (°C),ASC tube jacket temperature (°C),LED temperature (°C),Box temperature (°C),Sample RH (%),Span deviation,Mass concentration (μg/m³),Mass concentration (μg/m³),Mass concentration (μg/m³)
DateTimeUTC,F1_M11,P_M11,Q1_M11,Q2_M11,T1_M11,T2_M11,T3_M11,T4_M11,T5_M11,U1_M11,ZSPAN_M11,X0_M11,X2_M11,X1_M11
2021-11-14 03:00:00,,0828.1,4.98,0.00,28.0,27.1,00.0,37.1,29.7,11.1,0000.0,0003.65,0001.00,0000.62
2021-11-14 03:01:00,,0828.2,5.01,0.00,28.1,27.1,00.0,37.1,29.7,11.0,0000.0,0003.61,0000.97,0000.63
2021-11-14 03:02:00,,0828.1,5.00,0.00,28.1,27.2,00.0,37.1,29.8,11.1,0000.0,0003.53,0000.95,0000.63
2021-11-14 03:03:00,,0828.1,5.01,0.00,28.1,27.2,00.0,37.1,29.8,11.1,0000.0,0003.26,0000.91,0000.62
2021-11-14 03:04:00,,0828.2,4.99,0.00,28.1,27.2,00.0,37.1,29.9,11.0,0000.0,0002.55,0000.90,0000.61
2021-11-14 03:05:00,,0828.3,5.00,0.00,28.1,27.2,00.0,37.1,29.8,11.0,0000.0,0002.55,0000.90,0000.61
2021-11-14 03:06:00,,0828.4,4.99,0.00,28.1,27.2,00.0,37.1,29.9,10.9,0000.0,0001.93,0000.88,0000.60
2021-11-14 03:07:00,,0828.4,5.00,0.00,28.1,27.2,00.0,37.1,29.9,10.9,0000.0,0001.48,0000.89,0000.60
2021-11-14 03:08:00,,0828.3,5.01,0.00,28.1,27.3,00.0,37.1,29.9,10.8,0000.0,0001.37,0000.86,0000.59
2021-11-14 03:09:00,,0828.3,4.99,0.00,28.1,27.3,00.0,37.1,29.9,10.7,0000.0,0001.37,0000.86,0000.59
2021-11-14 03:10:00,,0828.3,5.01,0.00,28.1,27.3,00.0,37.1,29.8,10.8,0000.0,0001.26,0000.82,0000.57
2021-11-14 03:11:00,,0828.2,5.00,0.00,28.1,27.2,00.0,37.1,29.7,10.6,0000.0,0001.25,0000.82,0000.56
2021-11-14 03:12:00,,0828.2,4.99,0.00,28.1,27.2,00.0,37.1,29.7,10.7,0000.0,0001.31,0000.83,0000.55
2021-11-14 03:13:00,,0828.4,5.00,0.00,28.1,27.2,00.0,37.1,29.8,10.7,0000.0,0001.36,0000.85,0000.55
2021-11-14 03:14:00,,0828.5,4.99,0.00,28.1,27.2,00.0,37.1,29.8,10.8,0000.0,0001.35,0000.84,0000.55
2021-11-14 03:15:00,,0828.5,5.00,0.00,28.1,27.2,00.0,37.1,29.8,10.8,0000.0,0001.41,0000.83,0000.54
2021-11-14 03:16:00,,0828.4,5.01,0.00,28.1,27.2,00.0,37.1,29.8,10.9,0000.0,0001.37,0000.82,0000.54
2021-11-14 03:17:00,,0828.5,4.99,0.00,28.1,27.2,00.0,37.1,29.8,10.9,0000.0,0001.32,0000.80,0000.55
2021-11-14 03:18:00,,0828.5,4.99,0.00,28.1,27.2,00.0,37.1,29.8,10.9,0000.0,0001.25,0000.76,0000.56
2021-11-14 03:19:00,,0828.5,5.00,0.00,28.1,27.2,00.0,37.1,29.8,10.9,0000.0,0001.22,0000.75,0000.56
2021-11-14 03:20:00,,0828.5,4.99,0.00,28.1,27.2,00.0,37.1,29.8,10.9,0000.0,0001.25,0000.76,0000.57
2021-11-14 03:21:00,,0828.7,5.02,0.00,28.1,27.2,00.0,37.1,29.8,10.9,0000.0,0001.25,0000.76,0000.57
2021-11-14 03:22:00,,0828.8,5.00,0.00,28.1,27.1,00.0,37.1,29.8,10.9,0000.0,0001.32,0000.75,0000.57
2021-11-14 03:23:00,,0829.0,5.00,0.00,28.1,27.1,00.0,37.1,29.7,10.9,0000.0,0001.32,0000.76,0000.58
2021-11-14 03:24:00,,0828.8,5.00,0.00,28.1,27.1,00.0,37.1,29.8,10.9,0000.0,0001.29,0000.76,0000.58
2021-11-14 03:25:00,,0828.8,5.01,0.00,28.1,27.1,00.0,37.1,29.8,10.9,0000.0,0001.40,0000.81,0000.58
2021-11-14 03:26:00,,0828.9,5.01,0.00,28.1,27.1,00.0,37.1,29.8,10.9,0000.0,0001.46,0000.86,0000.59
2021-11-14 03:27:00,,0828.9,5.01,0.00,28.1,27.2,00.0,37.1,29.8,10.9,0000.0,0001.46,0000.86,0000.59
2021-11-14 03:28:00,,0829.2,5.00,0.00,28.1,27.2,00.0,37.1,29.8,10.8,0000.0,0001.60,0000.87,0000.58
2021-11-14 03:29:00,,0828.8,4.99,0.00,28.1,27.2,00.0,37.1,29.9,10.9,0000.0,0001.63,0000.88,0000.58
2021-11-14 03:30:00,,0829.0,5.00,0.00,28.1,27.2,00.0,37.1,29.8,10.9,0000.0,0001.62,0000.87,0000.57
2021-11-14 03:31:00,,0828.7,5.02,0.00,28.1,27.2,00.0,37.1,29.9,10.9,0000.0,0001.54,0000.84,0000.57
2021-11-14 03:32:00,,0828.8,5.00,0.00,28.1,27.2,00.0,37.1,29.9,10.9,0000.0,0001.60,0000.88,0000.58
2021-11-14 03:33:00,,0828.8,5.01,0.00,28.1,27.2,00.0,37.1,29.8,10.9,0000.0,0001.53,0000.89,0000.58
2021-11-14 03:34:00,,0829.0,5.00,0.00,28.1,27.2,00.0,37.1,29.8,10.9,0000.0,0001.46,0000.87,0000.58
2021-11-14 03:35:00,,0828.8,4.99,0.00,28.1,27.2,00.0,37.1,29.9,10.9,0000.0,0001.44,0000.85,0000.58
2021-11-14 03:36:00,,0828.7,5.00,0.00,28.1,27.2,00.0,37.1,29.9,10.9,0000.0,0001.38,0000.82,0000.59
2021-11-14 03:37:00,,0828.9,5.00,0.00,28.1,27.2,00.0,37.1,29.9,10.8,0000.0,0001.23,0000.77,0000.59
2021-11-14 03:38:00,,0829.3,5.02,0.00,28.1,27.2,00.0,37.1,29.8,10.8,0000.0,0001.24,0000.78,0000.60
2021-11-14 03:39:00,,0829.0,4.99,0.00,28.1,27.2,00.0,37.1,29.9,10.8,0000.0,0001.16,0000.80,0000.61
2021-11-14 03:40:00,,0828.8,5.00,0.00,28.1,27.2,00.0,37.1,29.9,10.8,0000.0,0001.25,0000.86,0000.63
2021-11-14 03:41:00,,0829.2,5.00,0.00,28.1,27.2,00.0,37.1,29.9,10.8,0000.0,0001.28,0000.87,0000.63
2021-11-14 03:42:00,,0829.3,4.99,0.00,28.1,27.2,00.0,37.1,29.8,10.8,0000.0,0001.33,0000.89,0000.64
2021-11-14 03:43:00,,0829.0,4.99,0.00,28.0,27.2,00.0,37.1,29.8,10.9,0000.0,0001.28,0000.87,0000.64
2021-11-14 03:44:00,,0829.0,5.00,0.00,28.0,27.2,00.0,37.1,29.8,10.9,0000.0,0001.41,0000.90,0000.64
2021-11-14 03:45:00,,0828.7,5.00,0.00,28.0,27.2,00.0,37.1,29.8,10.9,0000.0,0001.42,0000.89,0000.64
2021-11-14 03:46:00,,0828.7,4.99,0.00,28.0,27.2,00.0,37.1,29.8,10.8,0000.0,0001.39,0000.88,0000.64
2021-11-14 03:47:00,,0828.7,4.99,0.00,28.0,27.2,00.0,37.1,29.8,10.9,0000.0,0001.57,0000.89,0000.64
2021-11-14 03:48:00,,0829.2,5.02,0.00,28.0,27.2,00.0,37.1,29.9,10.9,0000.0,0001.64,0000.89,0000.63
2021-11-14 03:49:00,,0828.8,4.99,0.00,28.0,27.2,00.0,37.1,29.9,10.9,0000.0,0001.62,0000.87,0000.62
2021-11-14 03:50:00,,0828.9,5.01,0.00,28.0,27.2,00.0,37.1,29.8,10.9,0000.0,0001.53,0000.83,0000.61
2021-11-14 03:51:00,,0828.9,5.01,0.00,28.0,27.2,00.0,37.1,29.8,10.9,0000.0,0001.43,0000.78,0000.60
2021-11-14 03:52:00,,0828.9,5.01,0.00,28.1,27.3,00.0,37.1,29.8,10.8,0000.0,0001.41,0000.77,0000.61
2021-11-14 03:53:00,,0828.9,5.00,0.00,28.1,27.3,00.0,37.1,29.9,10.8,0000.0,0002.79,0000.78,0000.61
2021-11-14 03:54:00,,0828.9,4.98,0.00,28.1,27.3,00.0,37.1,29.9,10.7,0000.0,0002.91,0000.79,0000.61
2021-11-14 03:55:00,,0828.9,5.01,0.00,28.1,27.3,00.0,37.1,29.9,10.7,0000.0,0002.87,0000.79,0000.62
2021-11-14 03:56:00,,0828.9,5.00,0.00,28.1,27.3,00.0,37.1,29.9,10.7,0000.0,0002.90,0000.81,0000.62
2021-11-14 03:57:00,,0828.9,5.00,0.00,28.1,27.3,00.0,37.1,29.9,10.7,0000.0,0003.00,0000.83,0000.62
2021-11-14 03:58:00,,0828.9,5.00,0.00,28.1,27.3,00.0,37.1,29.9,10.7,0000.0,0002.92,0000.85,0000.63
2021-11-14 03:59:00,,0828.9,5.02,0.00,28.1,27.3,00.0,37.1,29.8,10.7,0000.0,0002.88,0000.85,0000.63
